This is the latest recevied weather packets stored in our database for station/object KB1FPD. If no packets are shown the sender has not sent any weather packets the latest 1 day(s).
| Time | Temp. | Humidity | Pressure | Rain* | Wind** | Luminosity | Snow |
|---|---|---|---|---|---|---|---|
| 1778022979 | 23.33° C | 40% | 1009.1 hPa | 0 mm | 3.58 m/s, 159° | - | - |
| 1778022685 | 23.33° C | 41% | 1009.2 hPa | 0 mm | 3.13 m/s, 205° | - | - |
| 1778022382 | 23.33° C | 42% | 1009.2 hPa | 0 mm | 3.13 m/s, 204° | - | - |
| 1778022074 | 23.33° C | 42% | 1009.1 hPa | 0 mm | 2.68 m/s, 181° | - | - |
| 1778021775 | 23.89° C | 42% | 1009.2 hPa | 0 mm | 2.68 m/s, 167° | - | - |
| 1778021474 | 23.89° C | 42% | 1009.3 hPa | 0 mm | 3.13 m/s, 190° | - | - |
| 1778021175 | 23.33° C | 42% | 1009.3 hPa | 0 mm | 3.13 m/s, 212° | - | - |
| 1778020878 | 23.89° C | 43% | 1009.4 hPa | 0 mm | 3.58 m/s, 208° | - | - |
| 1778020569 | 23.89° C | 42% | 1009.4 hPa | 0 mm | 3.58 m/s, 193° | - | - |
| 1778020277 | 23.89° C | 41% | 1009.4 hPa | 0 mm | 3.58 m/s, 162° | - | - |
| 1778019669 | 23.33° C | 43% | 1009.3 hPa | 0 mm | 3.13 m/s, 197° | - | - |
| 1778019375 | 23.89° C | 42% | 1009.2 hPa | 0 mm | 2.68 m/s, 157° | - | - |
| 1778019071 | 23.89° C | 44% | 1009.2 hPa | 0 mm | 2.68 m/s, 192° | - | - |
| 1778018768 | 23.89° C | 43% | 1009.4 hPa | 0 mm | 2.68 m/s, 199° | - | - |
| 1778018477 | 23.89° C | 44% | 1009.2 hPa | 0 mm | 2.68 m/s, 189° | - | - |
| 1778018171 | 23.89° C | 44% | 1009.3 hPa | 0 mm | 2.68 m/s, 188° | - | - |
| 1778017874 | 23.89° C | 45% | 1009.4 hPa | 0 mm | 2.68 m/s, 153° | - | - |
| 1778017569 | 23.89° C | 43% | 1009.3 hPa | 0 mm | 3.13 m/s, 187° | - | - |
| 1778017268 | 23.89° C | 43% | 1009.3 hPa | 0 mm | 3.58 m/s, 207° | - | - |
| 1778016967 | 23.89° C | 42% | 1009.4 hPa | 0 mm | 3.58 m/s, 161° | - | - |
| 1778016669 | 23.89° C | 42% | 1009.3 hPa | 0 mm | 4.02 m/s, 193° | - | - |
| 1778016373 | 24.44° C | 41% | 1009.4 hPa | 0 mm | 4.47 m/s, 222° | - | - |
| 1778016086 | 24.44° C | 42% | 1009.3 hPa | 0 mm | 4.47 m/s, 195° | - | - |
| 1778015797 | 24.44° C | 43% | 1009.1 hPa | 0 mm | 3.58 m/s, 186° | - | - |
| 1778015498 | 25° C | 44% | 1009.1 hPa | 0 mm | 3.58 m/s, 228° | - | - |
* Rain latest hour (hover to see other rain measurements)
** Current wind speed in m/s (hover to see current wind gust speed)